Location: Boston
(42.3580°N, 71.0600°W)
Time: 19:42:17
(UTC-04:00)

Envisat - Pass Details

Date: 07 October 2017
Orbit: 764 x 766 km, 98.2° (Epoch: 19 October)

Event Time Altitude Azimuth Distance (km) Brightness Sun altitude
Exits shadow 21:18:24 34° 265° (W) 1,250 4.4 -33.9°
Drops below altitude 10° 21:22:56 10° 328° (NNW) 2,310 6.1 -34.6°
Sets 21:25:28 0° 338° (NNW) 3,241 6.9 -35.0°
